SCP
0 0 0 0 0 0 0 0 0 0 0 0 0 0 0 0 0 0 0 0 0 0 0 0 0 0 0 0 0 0 0 0 0 0 0 0 0 0
0 0 0 0 0 0 0 0 0 0 0 0 0 0 0 -0 0 0 0 0 0 0 0 0 0 0 0 0 0 0 0 0 0 0 0 0 0 0
0 0 0 0 0 0 0 0 0 0 0 0 0 0 0 0 0 0 0 0 0 0 0 0 0 0 0 0 0 0 0 0 0 0 0 0 0 0
0 0 0 0 0 0 0 0 0 0 0 0 0 0 0 0 0 0 0 0 0 0 0 0 0 0 0 0 0 0 0 0 0 0 0 0 0 0
0 0 0 0 0 0 0 0 0 0 0 0 0 0 0 0 0 0 0 0 0 0 0 0 0 0 0 0 0 0 0 0 0 0 0 0 0 0
0 0 0 0 0 0 0 0 0 0 0 0 0 0 0 0 0 0 0 0 0 0 0 0 0 0 -0 0 0 0 0 0 0 0 0 0 0 0
0 0 0 0 0 0 0 0 0 0 0 0 0 0 0 0 0 0 0 0 0 0 0 0 0 0 0 0 0 0 0 0 0 0 0 0 0 0
0 0 0 0 0 0 0 -0 0 0 0 0 0 0 0 0 0 0 0 0 0 0 0 0 0 0 0 0 0 0 0 0 0 0 0 0 0 0
0 0 0 0 0 0 -0 -0 -0 -0 -0 0 0 0 0 0 0 0 0 0 0 0 0 0 0 0 0 0 0 0 0 0 0 0 0 0 0 0
0 0 0 0 0 0 0 -0 0 0 0 0 0 0 0 0 0 0 0 -0 -0 0 0 0 0 0 0 0 0 0 0 0 0 0 0 0 -0 0
0 0 0 0 0 0 0 0 0 0 0 0 0 0 0 0 0 -0 0 -0 -0 0 0 0 0 0 0 0 0 0 0 0 0 0 0 0 0 -0
0 0 0 0 0 0 0 0 0 -0 -0 -0 -0 0 -0 0 0 0 0 -0 -0 0 0 0 0 0 -0 0 0 0 0 0 0 0 0 0 0 0
0 0 0 -0 -0 -0 -0 0 -0 0 0 0 0 0 0 0 0 0 0 0 0 -0 0 -0 0 0 -0 -0 0 0 0 0 0 0 0 0 -0 -0
-0 -0 0 -0 -0 -0 -0 -0 -0 0 0 0 0 0 0 0 0 0 0 0 0 0 -0 -0 0 0 0 0 0 0 0 0 0 0 0 0 -0 -0
-0 0 0 0 -0 -0 -0 0 0 0 0 0 0 0 0 0 0 0 0 0 0 0 0 0 0 -0 0 0 0 0 0 0 0 0 0 0 0 0
0 0 -0 -0 -0 0 0 0 0 0 0 0 0 0 0 0 0 0 0 -0 0 -0 0 0 0 0 0 0 0 0 0 0 0 0 0 0 0 0
-0 0 0 0 0 0 0 0 0 0 0 0 0 0 0 0 0 0 0 0 0 -0 -0 -0 -0 0 0 0 0 0 0 0 0 0 0 0 0 0
0 0 0 0 0 0 0 0 0 0 0 0 0 0 0 0 0 0 0 0 0 0 0 -0 -0 -0 0 0 0 0 0 0 0 0 0 0 0 0
0 0 0 0 0 0 0 0 0 0 0 0 0 0 0 0 0 0 0 0 0 0 0 0 0 0 0 0 0 0 0 0 0 0 0 0 0 0
0 0 0 0 0 0 0 0 0 0 0 0 0 0 0 0 0 0 0 0 0 0 0 0 0 0 0 0 0 0 0 0 0 0 0 0 0 0
0 0 0 0 0 0 0 0 0 0 0 0 0 0 0 0 0 0 0 0 0 0 0 0 0 0 0 0 0 0 0 0 0 0 0 0 0 0
0 0 0 0 0 0 0 0 0 0 0 0 0 0 0 0 0 0 0 0 0 0 0 0 0 0 0 0 0 0 0 0 0 0 0 0 0 0
0 0 0 0 0 0 0 0 0 0 0 0 0 0 0 0 0 0 0 0 0 0 0 0 0 0 0 0 0 0 0 0 0 0 0 0 0 0
Wind_Speed_500mb
47 40 45 32 30 30 29 24 24 17 13 22 25 26 29 35 42 38 37 36 37 39 41 42 44 47 52 55 58 62 65 68 71 71 72 73 74 74
29 32 40 31 37 37 20 20 28 28 26 24 27 30 31 39 37 35 33 33 35 37 38 41 45 50 53 54 57 61 66 67 69 72 73 75 75 74
19 29 27 28 17 16 12 20 27 30 28 32 31 29 33 27 27 29 30 29 29 33 38 43 46 49 53 56 59 61 68 73 71 70 69 71 73 75
9 9 3 8 20 15 15 16 18 18 23 24 25 24 20 21 20 22 24 22 24 34 38 39 44 47 49 53 60 65 67 69 71 78 84 84 80 72
6 11 12 8 10 14 10 12 13 16 17 14 11 10 11 11 12 16 17 14 21 31 34 40 40 45 49 55 64 64 64 74 84 83 80 87 81 73
20 17 16 13 10 7 5 11 7 4 5 3 2 4 7 10 10 10 12 11 18 30 36 41 41 46 57 59 58 58 77 86 80 78 87 84 75 58
13 10 9 10 6 8 7 6 5 3 3 4 3 3 5 8 17 25 26 22 20 40 40 41 46 51 55 62 65 69 79 87 92 85 81 78 67 42
6 7 8 9 10 10 9 8 9 7 6 9 8 10 17 22 27 31 30 27 38 41 48 45 45 53 58 64 67 65 72 87 96 94 83 65 57 40
11 10 12 15 15 15 14 13 13 9 10 13 15 20 24 27 27 27 31 27 41 47 46 51 40 53 59 61 63 64 71 80 94 86 83 61 46 36
16 16 16 16 17 17 17 15 15 15 18 20 20 24 25 25 26 31 33 28 33 49 49 56 40 49 59 59 59 65 71 75 84 77 72 82 51 39
15 17 15 15 16 16 18 17 17 18 22 24 24 24 25 26 28 28 31 35 25 46 48 51 56 29 55 60 63 67 73 71 76 83 89 68 68 82
17 19 18 16 17 18 19 17 15 18 21 20 21 21 21 24 26 29 33 38 42 30 47 48 51 50 30 55 61 64 70 74 71 70 75 80 93 91
16 17 17 16 16 16 17 17 15 14 17 17 15 16 19 22 26 29 31 34 38 40 45 45 45 47 48 44 58 61 65 66 69 70 69 73 77 84
13 13 13 14 15 15 15 13 12 12 12 12 13 16 18 21 25 27 27 30 33 37 40 41 41 43 44 49 54 53 62 60 61 64 61 56 61 68
9 9 11 12 14 14 13 12 11 10 9 9 10 11 14 18 22 24 24 26 30 31 32 35 38 36 39 45 52 56 54 59 51 49 48 49 49 49
12 14 14 16 15 13 12 12 12 11 10 9 9 9 11 14 17 20 24 25 24 23 26 31 31 29 33 38 44 51 56 59 49 43 41 38 37 36
18 18 18 17 15 15 16 15 15 13 12 12 11 10 10 11 13 14 16 17 18 20 22 23 26 26 30 31 35 43 45 48 48 40 32 39 41 39
25 23 22 22 22 23 24 23 22 19 17 15 13 10 8 8 10 9 11 13 15 17 19 20 21 19 19 28 29 29 31 39 37 33 28 34 44 42
34 31 31 32 29 29 31 31 30 27 22 19 17 16 15 13 12 9 9 10 11 15 17 17 18 18 15 22 22 24 24 25 22 20 25 25 22 22
42 41 39 40 37 34 36 36 37 34 29 26 26 25 24 22 17 13 10 8 8 11 14 16 14 13 12 18 16 18 19 16 15 19 19 22 20 19
45 45 43 43 42 40 40 40 42 41 37 35 33 32 31 29 26 20 16 13 9 9 11 12 11 11 13 15 14 15 14 13 12 12 12 12 11 9
49 49 46 47 47 48 47 46 46 46 43 41 40 39 37 36 33 27 24 21 16 13 11 9 8 8 8 9 11 10 10 9 9 9 9 7 5 4
54 52 50 50 50 51 51 51 50 49 48 47 47 46 43 41 39 35 31 28 23 19 16 13 10 6 4 3 2 2 3 3 5 7 8 9 7 6
Wind_Direction_500mb
265 263 259 266 270 257 263 276 266 265 272 250 256 277 278 304 314 316 321 322 319 317 318 319 319 318 319 319 318 317 315 312 310 309 306 303 298 296
266 268 284 265 262 264 245 254 255 251 241 238 249 270 297 314 317 322 322 325 322 320 323 329 327 327 327 327 326 323 320 318 316 316 312 307 302 295
273 261 273 251 256 239 256 257 252 248 246 247 259 284 303 310 318 322 329 329 326 330 335 331 334 336 336 332 329 328 331 332 327 323 320 315 308 301
273 254 255 345 301 297 270 263 260 257 250 253 264 286 299 313 325 330 330 336 343 346 347 345 345 339 335 342 340 341 339 338 339 333 328 324 318 308
193 186 179 181 249 269 267 253 279 275 270 257 259 280 304 327 334 338 344 350 1 357 358 352 348 355 352 354 355 349 348 347 342 337 332 322 310 299
218 218 220 228 218 228 237 261 261 255 237 210 252 332 348 356 2 23 24 33 24 19 11 4 8 4 7 4 355 356 3 354 345 345 342 335 328 309
215 213 216 177 194 225 200 178 131 120 101 98 65 45 44 35 33 32 29 29 25 26 16 16 16 11 10 9 8 13 8 6 0 356 354 346 341 331
197 220 216 206 167 154 146 132 114 132 131 92 93 79 60 50 35 29 26 30 31 24 29 25 20 19 17 16 14 9 5 7 1 3 4 355 2 3
194 188 168 153 148 148 144 139 130 127 98 85 70 66 59 52 40 31 33 35 29 24 30 29 30 28 25 20 16 13 15 15 11 16 11 13 21 40
155 152 152 144 140 131 119 115 113 108 94 84 73 62 53 49 42 35 32 39 40 27 25 34 36 34 31 26 23 24 27 30 25 32 26 20 26 48
157 143 143 143 130 129 119 111 113 107 90 77 67 57 50 46 42 37 37 33 46 36 32 30 32 40 32 29 28 35 40 40 42 47 48 46 61 96
156 156 153 143 144 138 128 115 96 88 83 74 65 58 54 50 47 41 35 33 37 34 34 39 36 38 38 34 34 36 46 44 44 46 54 66 89 98
161 157 154 155 142 136 124 111 105 97 87 82 76 70 61 56 54 48 41 36 36 39 37 40 43 44 48 45 43 41 46 49 47 53 58 72 79 88
171 168 165 162 153 137 127 124 129 114 104 98 83 72 67 59 59 58 46 41 39 41 41 42 47 45 44 49 49 48 52 55 56 52 57 66 80 88
174 194 194 180 172 164 156 159 156 146 135 113 99 86 74 66 58 57 56 44 42 41 46 50 51 49 49 54 54 51 53 54 62 63 62 63 74 81
209 216 211 207 197 189 194 197 193 181 170 160 152 125 91 72 63 55 50 49 45 47 52 57 56 56 59 62 62 58 56 58 58 68 70 75 88 87
217 224 228 227 224 225 225 225 223 214 206 201 193 165 129 105 91 71 61 54 53 56 63 70 69 67 66 65 65 67 62 62 57 64 83 87 86 86
228 231 235 237 240 244 243 240 238 232 226 223 225 217 190 155 134 115 91 73 64 67 72 74 78 72 69 67 61 65 68 64 61 60 68 90 95 93
238 239 240 241 241 247 252 250 244 239 235 232 232 233 229 215 182 160 130 108 88 79 81 79 79 79 83 81 71 62 58 63 60 71 71 70 84 94
241 244 245 247 247 250 254 255 250 243 240 236 236 233 232 230 218 198 182 156 128 105 92 84 79 86 83 84 83 75 68 53 59 58 70 74 71 75
250 251 253 252 251 250 250 251 251 247 241 236 236 234 233 231 224 214 203 196 180 146 121 110 103 92 90 86 88 83 74 65 64 62 60 61 73 78
252 253 253 254 254 252 249 248 249 247 244 240 236 233 230 229 228 222 215 208 201 189 174 160 139 117 104 86 84 82 76 59 39 30 27 35 31 354
255 255 255 254 253 252 250 248 249 247 244 239 236 233 231 230 228 224 220 218 216 213 214 214 208 206 201 166 143 87 55 43 22 14 12 8 5 344
Wind_Speed_850mb
47 40 45 32 30 30 29 24 24 17 13 22 25 26 29 35 42 38 37 36 37 39 41 42 44 47 52 55 58 62 65 68 71 71 72 73 74 74
29 32 40 31 37 37 20 20 28 28 26 24 27 30 31 39 37 35 33 33 35 37 38 41 45 50 53 54 57 61 66 67 69 72 73 75 75 74
19 29 27 28 17 16 12 20 27 30 28 32 31 29 33 27 27 29 30 29 29 33 38 43 46 49 53 56 59 61 68 73 71 70 69 71 73 75
9 9 3 8 20 15 15 16 18 18 23 24 25 24 20 21 20 22 24 22 24 34 38 39 44 47 49 53 60 65 67 69 71 78 84 84 80 72
6 11 12 8 10 14 10 12 13 16 17 14 11 10 11 11 12 16 17 14 21 31 34 40 40 45 49 55 64 64 64 74 84 83 80 87 81 73
20 17 16 13 10 7 5 11 7 4 5 3 2 4 7 10 10 10 12 11 18 30 36 41 41 46 57 59 58 58 77 86 80 78 87 84 75 58
13 10 9 10 6 8 7 6 5 3 3 4 3 3 5 8 17 25 26 22 20 40 40 41 46 51 55 62 65 69 79 87 92 85 81 78 67 42
6 7 8 9 10 10 9 8 9 7 6 9 8 10 17 22 27 31 30 27 38 41 48 45 45 53 58 64 67 65 72 87 96 94 83 65 57 40
11 10 12 15 15 15 14 13 13 9 10 13 15 20 24 27 27 27 31 27 41 47 46 51 40 53 59 61 63 64 71 80 94 86 83 61 46 36
16 16 16 16 17 17 17 15 15 15 18 20 20 24 25 25 26 31 33 28 33 49 49 56 40 49 59 59 59 65 71 75 84 77 72 82 51 39
15 17 15 15 16 16 18 17 17 18 22 24 24 24 25 26 28 28 31 35 25 46 48 51 56 29 55 60 63 67 73 71 76 83 89 68 68 82
17 19 18 16 17 18 19 17 15 18 21 20 21 21 21 24 26 29 33 38 42 30 47 48 51 50 30 55 61 64 70 74 71 70 75 80 93 91
16 17 17 16 16 16 17 17 15 14 17 17 15 16 19 22 26 29 31 34 38 40 45 45 45 47 48 44 58 61 65 66 69 70 69 73 77 84
13 13 13 14 15 15 15 13 12 12 12 12 13 16 18 21 25 27 27 30 33 37 40 41 41 43 44 49 54 53 62 60 61 64 61 56 61 68
9 9 11 12 14 14 13 12 11 10 9 9 10 11 14 18 22 24 24 26 30 31 32 35 38 36 39 45 52 56 54 59 51 49 48 49 49 49
12 14 14 16 15 13 12 12 12 11 10 9 9 9 11 14 17 20 24 25 24 23 26 31 31 29 33 38 44 51 56 59 49 43 41 38 37 36
18 18 18 17 15 15 16 15 15 13 12 12 11 10 10 11 13 14 16 17 18 20 22 23 26 26 30 31 35 43 45 48 48 40 32 39 41 39
25 23 22 22 22 23 24 23 22 19 17 15 13 10 8 8 10 9 11 13 15 17 19 20 21 19 19 28 29 29 31 39 37 33 28 34 44 42
34 31 31 32 29 29 31 31 30 27 22 19 17 16 15 13 12 9 9 10 11 15 17 17 18 18 15 22 22 24 24 25 22 20 25 25 22 22
42 41 39 40 37 34 36 36 37 34 29 26 26 25 24 22 17 13 10 8 8 11 14 16 14 13 12 18 16 18 19 16 15 19 19 22 20 19
45 45 43 43 42 40 40 40 42 41 37 35 33 32 31 29 26 20 16 13 9 9 11 12 11 11 13 15 14 15 14 13 12 12 12 12 11 9
49 49 46 47 47 48 47 46 46 46 43 41 40 39 37 36 33 27 24 21 16 13 11 9 8 8 8 9 11 10 10 9 9 9 9 7 5 4
54 52 50 50 50 51 51 51 50 49 48 47 47 46 43 41 39 35 31 28 23 19 16 13 10 6 4 3 2 2 3 3 5 7 8 9 7 6
Wind_Direction_850mb
265 263 259 266 270 257 263 276 266 265 272 250 256 277 278 304 314 316 321 322 319 317 318 319 319 318 319 319 318 317 315 312 310 309 306 303 298 296
266 268 284 265 262 264 245 254 255 251 241 238 249 270 297 314 317 322 322 325 322 320 323 329 327 327 327 327 326 323 320 318 316 316 312 307 302 295
273 261 273 251 256 239 256 257 252 248 246 247 259 284 303 310 318 322 329 329 326 330 335 331 334 336 336 332 329 328 331 332 327 323 320 315 308 301
273 254 255 345 301 297 270 263 260 257 250 253 264 286 299 313 325 330 330 336 343 346 347 345 345 339 335 342 340 341 339 338 339 333 328 324 318 308
193 186 179 181 249 269 267 253 279 275 270 257 259 280 304 327 334 338 344 350 1 357 358 352 348 355 352 354 355 349 348 347 342 337 332 322 310 299
218 218 220 228 218 228 237 261 261 255 237 210 252 332 348 356 2 23 24 33 24 19 11 4 8 4 7 4 355 356 3 354 345 345 342 335 328 309
215 213 216 177 194 225 200 178 131 120 101 98 65 45 44 35 33 32 29 29 25 26 16 16 16 11 10 9 8 13 8 6 0 356 354 346 341 331
197 220 216 206 167 154 146 132 114 132 131 92 93 79 60 50 35 29 26 30 31 24 29 25 20 19 17 16 14 9 5 7 1 3 4 355 2 3
194 188 168 153 148 148 144 139 130 127 98 85 70 66 59 52 40 31 33 35 29 24 30 29 30 28 25 20 16 13 15 15 11 16 11 13 21 40
155 152 152 144 140 131 119 115 113 108 94 84 73 62 53 49 42 35 32 39 40 27 25 34 36 34 31 26 23 24 27 30 25 32 26 20 26 48
157 143 143 143 130 129 119 111 113 107 90 77 67 57 50 46 42 37 37 33 46 36 32 30 32 40 32 29 28 35 40 40 42 47 48 46 61 96
156 156 153 143 144 138 128 115 96 88 83 74 65 58 54 50 47 41 35 33 37 34 34 39 36 38 38 34 34 36 46 44 44 46 54 66 89 98
161 157 154 155 142 136 124 111 105 97 87 82 76 70 61 56 54 48 41 36 36 39 37 40 43 44 48 45 43 41 46 49 47 53 58 72 79 88
171 168 165 162 153 137 127 124 129 114 104 98 83 72 67 59 59 58 46 41 39 41 41 42 47 45 44 49 49 48 52 55 56 52 57 66 80 88
174 194 194 180 172 164 156 159 156 146 135 113 99 86 74 66 58 57 56 44 42 41 46 50 51 49 49 54 54 51 53 54 62 63 62 63 74 81
209 216 211 207 197 189 194 197 193 181 170 160 152 125 91 72 63 55 50 49 45 47 52 57 56 56 59 62 62 58 56 58 58 68 70 75 88 87
217 224 228 227 224 225 225 225 223 214 206 201 193 165 129 105 91 71 61 54 53 56 63 70 69 67 66 65 65 67 62 62 57 64 83 87 86 86
228 231 235 237 240 244 243 240 238 232 226 223 225 217 190 155 134 115 91 73 64 67 72 74 78 72 69 67 61 65 68 64 61 60 68 90 95 93
238 239 240 241 241 247 252 250 244 239 235 232 232 233 229 215 182 160 130 108 88 79 81 79 79 79 83 81 71 62 58 63 60 71 71 70 84 94
241 244 245 247 247 250 254 255 250 243 240 236 236 233 232 230 218 198 182 156 128 105 92 84 79 86 83 84 83 75 68 53 59 58 70 74 71 75
250 251 253 252 251 250 250 251 251 247 241 236 236 234 233 231 224 214 203 196 180 146 121 110 103 92 90 86 88 83 74 65 64 62 60 61 73 78
252 253 253 254 254 252 249 248 249 247 244 240 236 233 230 229 228 222 215 208 201 189 174 160 139 117 104 86 84 82 76 59 39 30 27 35 31 354
255 255 255 254 253 252 250 248 249 247 244 239 236 233 231 230 228 224 220 218 216 213 214 214 208 206 201 166 143 87 55 43 22 14 12 8 5 344